Weather History for KAAA - April, 2013

Change the Weather History Date:

Thursday, April 4, 2013

  Actual Average (KSPI) Record (KSPI)
Temperature  
Mean Temperature 44 °F 49 °F  
Max Temperature 60 °F 60 °F 86 °F (1929)
Min Temperature 27 °F 38 °F 22 °F (1975)
Degree Days  
Heating Degree Days 22 16  
Month to date heating degree days 66  
Since 1 July heating degree days 5048  
Cooling Degree Days 0 0  
Month to date cooling degree days 0  
Year to date cooling degree days 2  
Moisture  
Dew Point 22 °F    
Average Humidity 45    
Maximum Humidity 77    
Minimum Humidity 21    
Precipitation  
Precipitation 0.00 in 0.10 in 2.44 in (1892)
Month to date precipitation 0.41  
Year to date precipitation 6.67  
Snow  
Snow 0.00 in 0.00 in 5.20 in (1920)
Month to date snowfall 0.1  
Since 1 July snowfall 20.7  
Snow Depth -    
Sea Level Pressure  
Sea Level Pressure 30.13 in    
Wind  
Wind Speed 2 mph (SW)    
Max Wind Speed 8 mph    
Max Gust Speed -    
Visibility 10 miles    
Events      
T = Trace of Precipitation, MM = Missing Value Source: NWS Daily Summary

Daily Weather History Graph

Daily Weather History Graph

Search for Another Location

Airport or City:

Trip Planner

Search our weather history database for the weather conditions in past years. The results will help you decide how hot, cold, wet, or windy it might be!

Date:

Astronomy

Apr. 04, 2013 Rise Set
Actual Time 6:36 AM CDT 7:25 PM CDT
Civil Twilight 6:08 AM CDT 7:52 PM CDT
Nautical Twilight 5:35 AM CDT 8:25 PM CDT
Astronomical Twilight 5:02 AM CDT 8:59 PM CDT
Moon 3:03 AM CDT (4/4) 1:43 PM CDT (4/4)
Length of Visible Light 13h 44m
Length of Day
12h 49m
Waning Crescent, 33% of the Moon is Illuminated
Apr 4
Waning Crescent
Apr 10
New
Apr 18
First Quarter
Apr 25
Full
May 2
Last Quarter

Hourly Weather History & Observations

Time (CDT) Temp. Windchill Dew Point Humidity Pressure Visibility Wind Dir Wind Speed Gust Speed Precip Events Conditions
12:15 AM 34.0 °F 29.8 °F 23.7 °F 66% 30.29 in 10.0 mi East 4.6 mph - N/A   Clear
12:35 AM 34.5 °F 31.6 °F 23.7 °F 65% 30.28 in 10.0 mi East 3.5 mph - N/A   Clear
12:55 AM 33.6 °F 29.4 °F 23.4 °F 66% 30.28 in 10.0 mi East 4.6 mph - N/A   Clear
1:15 AM 34.7 °F 31.8 °F 23.0 °F 62% 30.27 in 10.0 mi East 3.5 mph - N/A   Clear
1:35 AM 32.4 °F - 23.0 °F 68% 30.27 in 10.0 mi Calm Calm - N/A   Clear
1:55 AM 32.0 °F - 23.0 °F 69% 30.27 in 10.0 mi Calm Calm - N/A   Clear
2:15 AM 32.0 °F - 22.8 °F 69% 30.26 in 10.0 mi Calm Calm - N/A   Clear
2:35 AM 31.5 °F - 22.8 °F 70% 30.25 in 10.0 mi Calm Calm - N/A   Clear
2:55 AM 31.5 °F - 22.8 °F 70% 30.24 in 10.0 mi Calm Calm - N/A   Clear
3:15 AM 30.6 °F - 22.5 °F 72% 30.24 in 10.0 mi Calm Calm - N/A   Clear
3:35 AM 31.1 °F - 22.6 °F 71% 30.23 in 10.0 mi Calm Calm - N/A   Clear
3:55 AM 29.5 °F - 22.5 °F 75% 30.23 in 10.0 mi Calm Calm - N/A   Clear
4:15 AM 30.2 °F - 22.6 °F 73% 30.22 in 10.0 mi Calm Calm - N/A   Clear
4:35 AM 28.9 °F - 22.6 °F 77% 30.22 in 10.0 mi Calm Calm - N/A   Clear
4:55 AM 28.9 °F - 22.6 °F 77% 30.22 in 10.0 mi Calm Calm - N/A   Clear
5:15 AM 28.6 °F - 21.9 °F 76% 30.21 in 10.0 mi Calm Calm - N/A   Clear
5:35 AM 27.5 °F - 21.2 °F 77% 30.21 in 10.0 mi Calm Calm - N/A   Clear
5:55 AM 27.7 °F - 21.0 °F 76% 30.22 in 10.0 mi Calm Calm - N/A   Clear
6:15 AM 28.4 °F - 21.2 °F 74% 30.22 in 10.0 mi Calm Calm - N/A   Clear
6:35 AM 28.0 °F - 21.2 °F 76% 30.22 in 10.0 mi Calm Calm - N/A   Clear
6:55 AM 28.4 °F - 21.4 °F 75% 30.22 in 10.0 mi Calm Calm - N/A   Clear
7:15 AM 29.3 °F - 21.7 °F 73% 30.22 in 10.0 mi Calm Calm - N/A   Clear
7:35 AM 30.9 °F - 23.9 °F 75% 30.22 in 10.0 mi Calm Calm - N/A   Clear
7:55 AM 33.6 °F - 25.2 °F 71% 30.22 in 10.0 mi Calm Calm - N/A   Clear
8:15 AM 37.2 °F - 26.6 °F 65% 30.22 in 10.0 mi Calm Calm - N/A   Clear
8:35 AM 39.6 °F - 26.4 °F 59% 30.20 in 10.0 mi Calm Calm - N/A   Clear
8:55 AM 43.0 °F 41.3 °F 23.4 °F 46% 30.20 in 10.0 mi SSE 3.5 mph - N/A   Clear
9:15 AM 45.5 °F 41.8 °F 22.5 °F 40% 30.19 in 10.0 mi SSE 6.9 mph - N/A   Clear
9:35 AM 46.6 °F - 19.6 °F 34% 30.18 in 10.0 mi South 8.1 mph - N/A   Clear
9:55 AM 48.2 °F - 19.8 °F 32% 30.18 in 10.0 mi South 6.9 mph - N/A   Clear
10:15 AM 50.2 °F - 19.8 °F 30% 30.17 in 10.0 mi Calm Calm - N/A   Clear
10:35 AM 50.5 °F - 18.3 °F 28% 30.17 in 10.0 mi Calm Calm - N/A   Clear
10:55 AM 51.1 °F - 19.0 °F 28% 30.16 in 10.0 mi South 3.5 mph - N/A   Clear
11:35 AM 52.5 °F - 19.6 °F 27% 30.15 in 10.0 mi Calm Calm - N/A   Clear
11:55 AM 53.4 °F - 19.4 °F 26% 30.14 in 10.0 mi Calm Calm - N/A   Clear
12:15 PM 53.4 °F - 19.6 °F 27% 30.13 in 10.0 mi Calm Calm - N/A   Clear
12:35 PM 55.4 °F - 19.4 °F 25% 30.12 in 10.0 mi Calm Calm - N/A   Clear
12:55 PM 55.0 °F - 20.3 °F 26% 30.11 in 10.0 mi Calm Calm - N/A   Clear
1:15 PM 55.8 °F - 19.9 °F 25% 30.10 in 10.0 mi SSW 3.5 mph - N/A   Clear
1:35 PM 57.7 °F - 22.3 °F 25% 30.10 in 10.0 mi WSW 3.5 mph - N/A   Clear
1:55 PM 57.6 °F - 20.1 °F 23% 30.09 in 10.0 mi West 3.5 mph - N/A   Clear
2:15 PM 57.4 °F - 20.1 °F 24% 30.08 in 10.0 mi Calm Calm - N/A   Clear
2:35 PM 58.6 °F - 20.1 °F 22% 30.07 in 10.0 mi Calm Calm - N/A   Clear
2:55 PM 59.2 °F - 22.1 °F 24% 30.07 in 10.0 mi WNW 3.5 mph - N/A   Clear
3:15 PM 59.2 °F - 19.8 °F 22% 30.06 in 10.0 mi West 3.5 mph - N/A   Clear
3:35 PM 59.4 °F - 21.2 °F 23% 30.05 in 10.0 mi WSW 4.6 mph - N/A   Clear
3:55 PM 60.3 °F - 21.0 °F 22% 30.04 in 10.0 mi SSW 4.6 mph - N/A   Clear
4:15 PM 59.5 °F - 19.9 °F 22% 30.04 in 10.0 mi Calm Calm - N/A   Clear
4:35 PM 60.1 °F - 19.6 °F 21% 30.03 in 10.0 mi WSW 4.6 mph - N/A   Clear
4:55 PM 60.6 °F - 19.8 °F 21% 30.03 in 10.0 mi SW 3.5 mph - N/A   Clear
5:15 PM 60.3 °F - 21.7 °F 23% 30.03 in 10.0 mi Calm Calm - N/A   Clear
5:35 PM 59.9 °F - 20.7 °F 22% 30.03 in 10.0 mi NW 3.5 mph - N/A   Clear
5:55 PM 59.9 °F - 19.9 °F 21% 30.03 in 10.0 mi NNW 3.5 mph - N/A   Clear
6:15 PM 59.0 °F - 18.9 °F 21% 30.03 in 10.0 mi Calm Calm - N/A   Clear
6:35 PM 58.1 °F - 19.4 °F 22% 30.02 in 10.0 mi WNW 4.6 mph - N/A   Clear
6:55 PM 57.0 °F - 20.5 °F 24% 30.03 in 10.0 mi Calm Calm - N/A   Clear
7:15 PM 55.9 °F - 21.0 °F 26% 30.02 in 10.0 mi Calm Calm - N/A   Clear
7:35 PM 55.0 °F - 20.7 °F 26% 30.02 in 10.0 mi Calm Calm - N/A   Clear
7:55 PM 54.9 °F - 20.3 °F 26% 30.02 in 10.0 mi Calm Calm - N/A   Clear
8:15 PM 53.1 °F - 20.3 °F 28% 30.02 in 10.0 mi Calm Calm - N/A   Clear
8:35 PM 50.4 °F - 21.4 °F 32% 30.02 in 10.0 mi Calm Calm - N/A   Clear
8:55 PM 48.2 °F - 22.5 °F 36% 30.02 in 10.0 mi Calm Calm - N/A   Clear
9:15 PM 44.6 °F - 23.5 °F 44% 30.03 in 10.0 mi Calm Calm - N/A   Clear
9:35 PM 48.4 °F - 22.1 °F 36% 30.03 in 10.0 mi Calm Calm - N/A   Clear
9:55 PM 48.4 °F - 22.5 °F 36% 30.03 in 10.0 mi Calm Calm - N/A   Clear
10:15 PM 46.8 °F - 23.7 °F 40% 30.03 in 10.0 mi Calm Calm - N/A   Clear
10:35 PM 46.4 °F - 23.9 °F 41% 30.03 in 10.0 mi Calm Calm - N/A   Clear
10:55 PM 45.3 °F - 24.1 °F 43% 30.03 in 10.0 mi Calm Calm - N/A   Clear
11:15 PM 45.9 °F - 23.9 °F 42% 30.02 in 10.0 mi Calm Calm - N/A   Clear
11:35 PM 45.7 °F 44.4 °F 24.1 °F 43% 30.03 in 10.0 mi WSW 3.5 mph - N/A   Clear
11:55 PM 48.0 °F - 24.4 °F 40% 30.03 in 10.0 mi WSW 4.6 mph - N/A   Clear